Simultaneous Nadir Overpasses (SNOs) Predictions

Prediction of SNOs between METOP-A and NOAA-19 Satellite Orbit:

Table of predicted SNOs for the next 14.0 days since TLE Epoch: 10/22/2011
Index Date Time (METOP-A) METOP-A Lat,Lon NOAA-19 Lat,Lon Distance(km) Time Diff (sec)
1 10/23/2011 09:49:05 -75.03,-150.04 -75.05,-159.72 277.62 44
2 10/23/2011 10:40:01 74.23, 15.09 74.21, 9.85 158.58 59
3 10/23/2011 11:31:03 -73.25,-179.91 -73.26, 179.38 22.65 73
4 10/23/2011 12:21:46 73.06, -13.00 73.09, -12.97 3.26 61
5 10/23/2011 13:12:28 -73.09, 154.38 -73.08, 154.28 3.29 36
6 10/23/2011 14:03:08 73.05, -38.37 73.05, -38.41 1.29 18
7 10/23/2011 14:53:51 -73.02, 128.89 -73.04, 128.84 2.61 6
8 10/23/2011 15:44:31 72.98, -63.86 73.01, -63.85 3.68 24
9 10/23/2011 16:35:14 -72.95, 103.41 -72.95, 103.51 3.51 47
10 10/23/2011 17:25:53 72.96, -89.23 72.97, -89.28 1.93 67
11 10/23/2011 18:16:48 -72.33, 76.77 -72.36, 79.23 83.13 67
12 10/23/2011 19:07:43 71.51,-117.44 71.51,-111.88 196.00 54
13 10/23/2011 19:58:52 -70.12, 47.57 -70.20, 57.56 376.45 27
14 11/02/2011 04:38:17 -74.90, -72.67 -74.86, -81.50 255.93 47
15 11/02/2011 05:29:14 74.04, 92.36 74.02, 88.02 132.96 62
16 11/02/2011 06:20:15 -73.11,-102.47 -73.12,-102.61 4.63 75
17 11/02/2011 07:10:55 73.07, 64.77 73.05, 64.80 2.61 57
18 11/02/2011 08:01:38 -73.04,-127.96 -73.03,-127.94 1.39 34
19 11/02/2011 08:52:18 73.00, 39.28 73.01, 39.36 2.74 15
20 11/02/2011
